Tracking 20232 objects as of 20-Jan-2020
HD Live streaming from Space Station
objects crossing your sky now

GALAXY 1R

Track GALAXY 1R now!
GALAXY 1R is classified as:


NORAD ID: 23016
Int'l Code: 1994-013A
Perigee: 36,063.9 km
Apogee: 36,115.5 km
Inclination: 10.1 °
Period: 1,451.2 minutes
Semi major axis: 42460 km
RCS: 8.3555 m2 (large)
Launch date: February 19, 1994
Source: United States (US)
Launch site: AIR FORCE EASTERN TEST RANGE (AFETR)

24 C-band; North America, Caribbean.
aabbcc
Your satellite tracking list
Your tracking list is empty




NASA's NSSDC Master Catalog

Two Line Element Set (TLE):
1 23016U 94013A   20020.41707794 -.00000320  00000-0  00000+0 0  9997
2 23016  10.1070  37.2958 0006070 295.4528  84.5253  0.99225280 94002
Source of the keplerian elements: AFSPC